[[{"header":{"parameterUnit":"m.s-1","parameterCategory":1,"la1":30.2991,"la2":30.254,"lo1":-89.0895,"lo2":-89.0444,"dx":0.0017,"dy":0.0017,"nx":28,"ny":28,"refTime":"2022-12-03T09:00:00:Z","depth":0,"parameterNumber":2,"parameterNumberName":"U-component_of_WINDS"},"data":[0,0,0,0,0,0,0,0,0,0,0,0,0,0,0,0,0,0,0,0,0,0,0,0,0,0,0,0,0,0,0,0,0,0,0,0,0,0,0,0,0,0,0,0,0,0,0,0,0,0,0,0,0,0,0,0,0,0,-1.6794,-1.6794,0,-1.6803,-1.6803,-1.6803,-1.6769,-1.6768,-1.6767,-1.6766,-1.6775,-1.6776,-1.6777,0,0,0,0,0,0,0,0,0,0,0,0,0,-1.6747,-1.6748,-1.6794,-1.6794,-1.6794,-1.6803,-1.6803,-1.6803,-1.6769,-1.6768,-1.6767,-1.6766,-1.6774,-1.6776,-1.6777,0,0,0,0,0,0,0,0,0,0,0,0,0,-1.6763,-1.6748,-1.6794,-1.6778,-1.6777,-1.6803,-1.6803,-1.6803,-1.677,-1.6768,-1.6767,-1.6765,-1.6774,-1.6776,-1.6777,-1.6818,0,0,-1.6783,-1.6783,0,0,0,0,0,0,0,0,-1.6762,-1.6764,-1.678,-1.6779,-1.6778,-1.6783,-1.679,-1.6808,-1.677,-1.6772,-1.6766,-1.6765,-1.6779,-1.678,-1.6785,-1.6819,-1.6819,-1.6783,-1.6784,-1.6785,-1.6785,0,0,0,0,0,0,0,-1.6761,-1.6764,-1.6797,-1.6781,-1.6779,-1.6771,-1.6771,-1.6793,-1.6784,-1.6772,-1.677,-1.6771,-1.6778,-1.6784,-1.6785,-1.6819,-1.6783,-1.6784,-1.6785,-1.6786,-1.6887,-1.6889,0,0,0,0,0,0,-1.6762,-1.6763,-1.6797,-1.6798,-1.6766,-1.6773,-1.6774,-1.6783,-1.6784,-1.6782,-1.6773,-1.677,-1.6781,-1.6783,-1.6785,-1.6833,-1.6785,-1.6786,-1.6787,-1.6886,-1.6888,-1.6889,0,0,0,0,0,0,-1.6761,-1.6765,-1.6797,-1.678,-1.6783,-1.6775,-1.6786,-1.6784,-1.679,-1.6784,-1.6782,-1.678,-1.678,-1.6783,-1.681,-1.6833,-1.6787,-1.6789,-1.6884,-1.6886,-1.6889,-1.6929,0,0,0,0,0,0,-1.676,-1.6765,-1.678,-1.678,-1.6784,-1.6822,-1.6788,-1.6785,-1.6793,-1.6789,-1.679,-1.6789,-1.6779,-1.6808,-1.6812,-1.6834,-1.679,-1.6882,-1.6885,-1.6888,-1.6925,-1.6932,-1.6938,0,0,0,0,0,-1.6758,-1.6791,-1.6781,-1.6786,-1.6803,-1.6823,-1.6825,-1.6813,-1.6795,-1.681,-1.6807,-1.6789,-1.683,-1.6811,-1.6816,-1.6838,-1.688,-1.6884,-1.6887,-1.6922,-1.6931,-1.6938,0,0,0,0,0,0,-1.6793,-1.6791,-1.678,-1.6814,-1.6819,-1.6817,-1.6836,-1.6823,-1.6833,-1.6829,-1.6814,-1.6814,-1.6845,-1.6845,-1.6824,-1.6878,-1.6852,-1.6857,-1.6877,-1.6885,-1.6891,-1.689,-1.6792,0,0,0,0,0,-1.6805,-1.6822,-1.6819,-1.6849,-1.6852,-1.6844,-1.6852,-1.6843,-1.6847,-1.6849,-1.6848,-1.6853,-1.6867,-1.6876,-1.6889,-1.6926,-1.6925,-1.6944,-1.695,-1.6956,-1.6959,-1.6979,-1.6987,-1.6901,-1.6901,-1.6901,0,0,-1.6829,-1.683,-1.6841,-1.6856,-1.6859,-1.6876,-1.6846,-1.6866,-1.6878,-1.6852,-1.6878,-1.6877,-1.6882,-1.6915,-1.6929,-1.6915,-1.6983,-1.696,-1.6965,-1.6965,-1.6984,-1.6992,-1.6999,-1.6904,-1.6904,-1.6903,0,0,-1.6882,-1.6885,-1.691,-1.6914,-1.6919,-1.6914,-1.692,-1.6921,-1.692,-1.6946,-1.6927,-1.6942,-1.6966,-1.697,-1.6975,-1.7032,-1.7015,-1.7036,-1.7069,-1.7088,-1.7095,-1.7101,-1.712,-1.7127,-1.704,-1.704,-1.7041,0,-1.6911,-1.6937,-1.6925,-1.6946,-1.6953,-1.6931,-1.6957,-1.6961,-1.697,-1.6975,-1.696,-1.6991,-1.6993,-1.7026,-1.704,-1.7045,-1.7051,-1.7035,-1.7095,-1.7101,-1.7106,-1.7124,-1.7132,-1.7043,-1.7043,-1.7042,-1.7042,0,-1.6972,-1.6991,-1.7011,-1.702,-1.703,-1.7053,-1.7044,-1.7055,-1.7046,-1.7042,-1.7069,-1.7071,-1.7083,-1.7091,-1.7081,-1.7123,-1.7114,-1.7098,-1.707,-1.7117,-1.7134,-1.7141,-1.7046,-1.7045,-1.7045,-1.7044,0,0,-1.7046,-1.705,-1.7057,-1.7061,-1.7066,-1.708,-1.7102,-1.7115,-1.7125,-1.7132,-1.715,-1.7172,-1.7157,-1.7163,-1.7154,-1.7171,-1.7215,-1.7153,-1.7152,-1.7163,-1.7261,-1.7272,-1.728,-1.7206,-1.7207,-1.7208,-1.726,0,-1.7097,-1.7135,-1.7126,-1.7164,-1.718,-1.7161,-1.7181,-1.7186,-1.7184,-1.7197,-1.7195,-1.721,-1.7189,-1.7193,-1.7209,-1.7206,-1.7234,-1.7203,-1.7222,-1.7222,-1.7219,-1.7289,-1.7301,-1.735,-1.7267,-1.7268,-1.7269,0,-1.7161,-1.7171,-1.7211,-1.7214,-1.722,-1.7238,-1.7249,-1.7263,-1.7269,-1.7266,-1.7274,-1.7262,-1.7284,-1.7258,-1.7289,-1.7267,-1.7275,-1.7275,-1.7277,-1.7276,-1.7247,-1.729,-1.7366,-1.7373,-1.7279,-1.7278,-1.7277,0,-1.7209,-1.7233,-1.726,-1.7265,-1.7269,-1.7282,-1.7284,-1.7288,-1.7297,-1.7307,-1.7312,-1.7325,-1.7331,-1.7341,-1.7333,-1.7315,-1.7365,-1.7338,-1.7362,-1.7363,-1.7372,-1.7371,-1.7449,-1.738,-1.738,-1.738,-1.7379,0,-1.7266,-1.7291,-1.7282,-1.7298,-1.7326,-1.7315,-1.7343,-1.7343,-1.7347,-1.7363,-1.7348,-1.7363,-1.7352,-1.7367,-1.7361,-1.7387,-1.739,-1.7388,-1.7386,-1.7389,-1.7389,-1.7392,-1.7388,-1.7381,-1.7381,-1.7381,-1.738,0,-1.7323,-1.7319,-1.7346,-1.7349,-1.735,-1.737,-1.7372,-1.7387,-1.7384,-1.7405,-1.7409,-1.7405,-1.7421,-1.7415,-1.7432,-1.7428,-1.7461,-1.7455,-1.7459,-1.7457,-1.7481,-1.7478,-1.7562,-1.7572,-1.7498,-1.7498,-1.7499,0,-1.7359,-1.7378,-1.7383,-1.7393,-1.7396,-1.7412,-1.7421,-1.7412,-1.7422,-1.7431,-1.7445,-1.746,-1.7472,-1.7499,-1.7497,-1.7511,-1.7504,-1.7533,-1.7506,-1.7508,-1.7503,-1.7501,-1.7503,-1.7537,-1.7538,-1.7539,-1.7539,0,-1.7423,-1.742,-1.7434,-1.7447,-1.7458,-1.7468,-1.7476,-1.7485,-1.7477,-1.7488,-1.7505,-1.7515,-1.7533,-1.7548,-1.756,-1.7562,-1.7549,-1.7548,-1.7554,-1.7556,-1.7557,-1.7556,-1.7472,-1.7546,-1.7545,-1.7545,-1.7544,-1.7544,-1.747,-1.7486,-1.7492,-1.7507,-1.7513,-1.7521,-1.7536,-1.7536,-1.755,-1.7564,-1.7558,-1.7578,-1.7584,-1.7599,-1.7603,-1.7618,-1.7607,-1.7616,-1.7618,-1.762,-1.7623,-1.7557,-1.7621,-1.762,-1.762,-1.762,-1.762,0,-1.7532,-1.7535,-1.755,-1.7562,-1.7575,-1.7563,-1.7572,-1.7583,-1.76,-1.7608,-1.762,-1.7639,-1.7654,-1.7655,-1.7669,-1.7681,-1.7675,-1.7685,-1.7683,-1.7683,-1.7632,-1.7625,-1.7689,-1.7689,-1.7689,-1.7689,-1.7689,-1.7689,-1.7565,-1.7591,-1.7589,-1.7618,-1.7621,-1.7641,-1.7647,-1.7655,-1.766,-1.7683,-1.7696,-1.7696,-1.77,-1.7715,-1.7728,-1.7728,-1.7733,-1.7745,-1.7742,-1.7694,-1.7687,-1.768,-1.7673,-1.7746,-1.7746,-1.7791,-1.7792,-1.7792]},{"header":{"parameterUnit":"m.s-1","parameterCategory":1,"la1":30.2991,"la2":30.254,"lo1":-89.0895,"lo2":-89.0444,"dx":0.0017,"dy":0.0017,"nx":28,"ny":28,"refTime":"2022-12-03T09:00:00:Z","depth":0,"parameterNumber":3,"parameterNumberName":"V-component_of_WINDS"},"data":[0,0,0,0,0,0,0,0,0,0,0,0,0,0,0,0,0,0,0,0,0,0,0,0,0,0,0,0,0,0,0,0,0,0,0,0,0,0,0,0,0,0,0,0,0,0,0,0,0,0,0,0,0,0,0,0,0,0,1.9193,1.9193,0,1.9189,1.9189,1.9189,1.9161,1.9161,1.916,1.9159,1.9153,1.9153,1.9154,0,0,0,0,0,0,0,0,0,0,0,0,0,1.9176,1.9176,1.9193,1.9193,1.9193,1.9189,1.9189,1.9189,1.9161,1.9161,1.916,1.9159,1.9153,1.9153,1.9154,0,0,0,0,0,0,0,0,0,0,0,0,0,1.9179,1.9177,1.9193,1.9179,1.9177,1.9189,1.9189,1.9189,1.9162,1.9161,1.916,1.9159,1.9153,1.9153,1.9154,1.9178,0,0,1.9156,1.9156,0,0,0,0,0,0,0,0,1.9179,1.9179,1.9181,1.918,1.9178,1.9175,1.918,1.9185,1.9162,1.9167,1.9159,1.9158,1.9161,1.9161,1.9162,1.9178,1.9177,1.9156,1.9156,1.9157,1.9157,0,0,0,0,0,0,0,1.9178,1.9179,1.9191,1.9181,1.9179,1.9172,1.9172,1.9181,1.917,1.9167,1.9165,1.9165,1.916,1.9161,1.9162,1.9177,1.9156,1.9157,1.9157,1.9157,1.9214,1.9215,0,0,0,0,0,0,1.918,1.9179,1.9191,1.9191,1.9176,1.9173,1.9173,1.9177,1.9169,1.9167,1.9166,1.9164,1.9161,1.9161,1.9161,1.919,1.9157,1.9157,1.9158,1.9213,1.9214,1.9215,0,0,0,0,0,0,1.918,1.9182,1.9191,1.9185,1.9185,1.9175,1.918,1.9177,1.9179,1.9169,1.9166,1.917,1.916,1.916,1.9175,1.9189,1.9158,1.9158,1.9211,1.9213,1.9215,1.9247,0,0,0,0,0,0,1.918,1.9182,1.9191,1.9185,1.9186,1.9205,1.918,1.9178,1.918,1.9177,1.9172,1.917,1.9159,1.9174,1.9175,1.919,1.9159,1.921,1.9212,1.9214,1.9244,1.9249,1.9254,0,0,0,0,0,1.9179,1.9199,1.9191,1.9193,1.9197,1.9206,1.9206,1.9194,1.9182,1.9191,1.9184,1.917,1.9188,1.9175,1.9177,1.9192,1.9209,1.9212,1.9214,1.9242,1.9248,1.9253,0,0,0,0,0,0,1.9206,1.9198,1.9189,1.9208,1.9208,1.9201,1.9212,1.9201,1.9204,1.9201,1.9186,1.9185,1.9201,1.9198,1.9184,1.9215,1.9196,1.9199,1.9217,1.9223,1.9227,1.9227,1.9159,0,0,0,0,0,1.9214,1.9222,1.9215,1.9232,1.9233,1.9223,1.9226,1.9217,1.9216,1.9216,1.921,1.9209,1.9215,1.9218,1.9223,1.9244,1.9243,1.9255,1.926,1.9263,1.9266,1.9278,1.9284,1.9223,1.9223,1.9223,0,0,1.923,1.9227,1.9233,1.9237,1.9236,1.9245,1.9223,1.9232,1.9239,1.9217,1.923,1.9227,1.9224,1.9243,1.925,1.924,1.9283,1.9267,1.927,1.927,1.9281,1.9287,1.9292,1.9225,1.9225,1.9225,0,0,1.9265,1.9264,1.9279,1.9278,1.9278,1.9271,1.9275,1.927,1.9267,1.9281,1.9265,1.9272,1.9281,1.9281,1.9282,1.9319,1.9306,1.9321,1.9345,1.9357,1.9362,1.9366,1.938,1.9385,1.9324,1.9324,1.9324,0,1.9285,1.9299,1.9287,1.9299,1.9302,1.9284,1.9299,1.9299,1.9299,1.9301,1.929,1.9303,1.93,1.9319,1.9328,1.9329,1.9333,1.9321,1.9362,1.9366,1.937,1.9383,1.9388,1.9326,1.9325,1.9325,1.9325,0,1.9324,1.9334,1.9346,1.9348,1.9352,1.9366,1.9356,1.9362,1.9353,1.9348,1.9362,1.9359,1.9363,1.9366,1.9357,1.9384,1.9378,1.9365,1.9345,1.9378,1.939,1.9395,1.9328,1.9328,1.9327,1.9327,0,0,1.9374,1.9372,1.9376,1.9378,1.9377,1.9384,1.9396,1.9402,1.9407,1.9408,1.9419,1.9428,1.9417,1.9418,1.9409,1.9419,1.945,1.9405,1.9405,1.9414,1.948,1.949,1.9496,1.9442,1.9443,1.9443,1.948,0,1.9408,1.943,1.9422,1.9445,1.9454,1.9438,1.9449,1.945,1.9446,1.9453,1.9448,1.9455,1.9439,1.944,1.9449,1.9444,1.9463,1.9441,1.9451,1.9452,1.9452,1.9502,1.9512,1.9548,1.9485,1.9486,1.9486,0,1.945,1.9455,1.948,1.9478,1.9482,1.9492,1.9497,1.9504,1.9505,1.9501,1.9504,1.9493,1.9505,1.9486,1.9503,1.9489,1.9493,1.9491,1.9492,1.9492,1.9471,1.9504,1.9558,1.9564,1.9493,1.9493,1.9492,0,1.9485,1.9497,1.9514,1.9516,1.9515,1.9523,1.9522,1.9522,1.9526,1.953,1.9533,1.9538,1.9541,1.9545,1.9536,1.9523,1.9555,1.9534,1.9552,1.9552,1.9559,1.9559,1.9615,1.9561,1.9561,1.9561,1.9561,0,1.9523,1.9539,1.953,1.954,1.9558,1.9547,1.9565,1.9563,1.9563,1.9573,1.9559,1.9568,1.9555,1.9563,1.9556,1.9572,1.9573,1.9571,1.9569,1.9572,1.9572,1.9574,1.9571,1.9563,1.9562,1.9562,1.9562,0,1.9565,1.9559,1.9576,1.9575,1.9575,1.9588,1.9586,1.9596,1.9591,1.9604,1.9606,1.9599,1.9608,1.96,1.9607,1.9603,1.9624,1.9619,1.9625,1.9623,1.9641,1.964,1.97,1.9708,1.965,1.965,1.9651,0,1.959,1.9602,1.9602,1.9608,1.961,1.9619,1.9624,1.9615,1.962,1.9623,1.9632,1.964,1.9646,1.9661,1.9656,1.9663,1.9657,1.9678,1.9658,1.9661,1.9658,1.9658,1.9659,1.9682,1.9683,1.9683,1.9684,0,1.9635,1.9632,1.964,1.9648,1.9655,1.966,1.9664,1.9669,1.966,1.9667,1.9677,1.9682,1.9691,1.9699,1.9704,1.9704,1.9692,1.969,1.9695,1.9698,1.9702,1.9701,1.9636,1.9689,1.9688,1.9688,1.9688,1.9687,1.9669,1.968,1.9682,1.9692,1.9695,1.9699,1.9709,1.9707,1.9715,1.9723,1.9717,1.9728,1.973,1.9736,1.9737,1.9746,1.9737,1.9743,1.9745,1.9747,1.975,1.9701,1.9747,1.9747,1.9746,1.9746,1.9746,0,1.9714,1.9716,1.9725,1.9732,1.974,1.9731,1.9735,1.9742,1.9753,1.9756,1.9763,1.9775,1.9783,1.978,1.9787,1.9795,1.979,1.9797,1.9797,1.9797,1.9757,1.9752,1.9801,1.9801,1.9801,1.9801,1.9801,1.9801,1.9739,1.9757,1.9754,1.9774,1.9775,1.9788,1.9791,1.9795,1.9798,1.9812,1.982,1.9818,1.9819,1.9827,1.9834,1.9833,1.9836,1.9845,1.9842,1.9805,1.98,1.9794,1.979,1.9846,1.9846,1.9882,1.9882,1.9882]}]]